When you browse on this site, cookies collect data to enhance your experience and personalize the content and advertising you see.
Visit our Privacy Policy to learn more. By continuing to use the site, you agree to this use of cookies and data.
  • In Lithuania
  • List of Countries
  • For 7 days
  • Water Temperature
  • Satellite Maps
  • Weather Map
  • Weather Widgets
  • user-avatar
    Login

    Hourly Weather Karolin

    Today, 18 February, Monday

    Time Temperature Precipitation Wind Pressure Humidity
    00:00 +4°C° 0 mm 2 mps 751 mmHg 87%
    01:00 +4°C° 0 mm 2 mps 751 mmHg 88%
    02:00 +4°C° 0 mm 2 mps 751 mmHg 89%
    03:00 +3°C° 0 mm 2 mps 751 mmHg 90%
    04:00 +3°C° 0 mm 2 mps 751 mmHg 91%
    05:00 +4°C° 0 mm 1 mps 751 mmHg 92%
    06:00 +4°C° 0 mm 1 mps 751 mmHg 93%
    07:00 +4°C° 0 mm 1 mps 751 mmHg 93%
    08:00 +4°C° 0 mm 1 mps 751 mmHg 94%
    09:00 +3°C° 0.1 mm 0 mps 751 mmHg 94%
    10:00 +4°C° 0.1 mm 0 mps 751 mmHg 93%
    11:00 +4°C° 0.1 mm 0 mps 752 mmHg 92%
    12:00 +5°C° 0 mm 0 mps 751 mmHg 89%
    13:00 +5°C° 0 mm 0 mps 751 mmHg 86%
    14:00 +7°C° 0 mm 1 mps 751 mmHg 83%
    15:00 +7°C° 0 mm 1 mps 751 mmHg 83%
    16:00 +6°C° 0 mm 1 mps 751 mmHg 84%
    17:00 +6°C° 0 mm 1 mps 751 mmHg 84%
    18:00 +5°C° 0 mm 2 mps 750 mmHg 87%
    19:00 +4°C° 0 mm 2 mps 750 mmHg 89%
    20:00 +3°C° 0 mm 2 mps 750 mmHg 92%
    21:00 +3°C° 0 mm 2 mps 750 mmHg 92%
    22:00 +2°C° 0 mm 3 mps 750 mmHg 92%
    23:00 +1°C° 0 mm 3 mps 750 mmHg 92%

    Tomorrow, 19 February, Tuesday

    Time Temperature Precipitation Wind Pressure Humidity
    00:00 +1°C° 0 mm 3 mps 749 mmHg 92%
    01:00 +1°C° 0 mm 3 mps 749 mmHg 92%
    02:00 +1°C° 0 mm 3 mps 749 mmHg 91%
    03:00 +1°C° 0 mm 3 mps 748 mmHg 92%
    04:00 0°C° 0 mm 4 mps 748 mmHg 92%
    05:00 0°C° 0 mm 4 mps 748 mmHg 93%
    06:00 0°C° 0 mm 4 mps 747 mmHg 93%
    07:00 -1°C° 0 mm 4 mps 747 mmHg 94%
    08:00 -1°C° 0 mm 4 mps 746 mmHg 94%
    09:00 0°C° 0 mm 4 mps 746 mmHg 87%
    10:00 +1°C° 0 mm 4 mps 746 mmHg 80%
    11:00 +4°C° 0 mm 4 mps 746 mmHg 73%
    12:00 +5°C° 0 mm 5 mps 745 mmHg 67%
    13:00 +6°C° 0 mm 5 mps 745 mmHg 62%
    14:00 +7°C° 0 mm 5 mps 744 mmHg 56%
    15:00 +7°C° 0 mm 5 mps 744 mmHg 57%
    16:00 +7°C° 0 mm 4 mps 743 mmHg 57%
    17:00 +7°C° 0 mm 4 mps 743 mmHg 58%
    18:00 +6°C° 0 mm 4 mps 743 mmHg 62%
    19:00 +5°C° 0 mm 4 mps 743 mmHg 66%
    20:00 +4°C° 0 mm 4 mps 743 mmHg 70%
    21:00 +4°C° 0 mm 4 mps 743 mmHg 72%
    22:00 +4°C° 0 mm 4 mps 743 mmHg 74%
    23:00 +3°C° 0 mm 4 mps 742 mmHg 76%

    Day after tomorrow, 20 February, Wednesday

    Time Temperature Precipitation Wind Pressure Humidity
    00:00 +3°C° 0.2 mm 4 mps 743 mmHg 82%
    01:00 +3°C° 0.2 mm 4 mps 743 mmHg 87%
    02:00 +3°C° 0.2 mm 4 mps 743 mmHg 92%
    03:00 +3°C° 0 mm 4 mps 743 mmHg 92%
    04:00 +3°C° 0 mm 4 mps 743 mmHg 92%
    05:00 +1°C° 0 mm 5 mps 742 mmHg 92%
    06:00 +1°C° 0.1 mm 5 mps 743 mmHg 91%
    07:00 +1°C° 0.1 mm 5 mps 743 mmHg 91%
    08:00 +1°C° 0.1 mm 5 mps 743 mmHg 90%
    09:00 +2°C° 0.1 mm 5 mps 744 mmHg 85%
    10:00 +2°C° 0.1 mm 6 mps 744 mmHg 80%
    11:00 +2°C° 0.1 mm 6 mps 744 mmHg 74%
    12:00 +3°C° 0.1 mm 6 mps 745 mmHg 71%
    13:00 +3°C° 0.1 mm 6 mps 745 mmHg 68%
    14:00 +3°C° 0.1 mm 7 mps 745 mmHg 65%
    15:00 +3°C° 0 mm 6 mps 745 mmHg 65%
    16:00 +3°C° 0 mm 6 mps 745 mmHg 66%
    17:00 +3°C° 0 mm 5 mps 746 mmHg 67%
    18:00 +3°C° 0 mm 5 mps 746 mmHg 69%
    19:00 +2°C° 0 mm 5 mps 746 mmHg 71%
    20:00 +2°C° 0 mm 5 mps 746 mmHg 73%
    21:00 +2°C° 0 mm 5 mps 747 mmHg 75%
    22:00 +2°C° 0 mm 5 mps 747 mmHg 77%
    23:00 +2°C° 0 mm 5 mps 747 mmHg 79%

    21 February, Thursday

    Time Temperature Precipitation Wind Pressure Humidity
    00:00 +2°C° 0 mm 5 mps 747 mmHg 81%
    01:00 +2°C° 0 mm 5 mps 747 mmHg 83%
    02:00 +1°C° 0 mm 5 mps 747 mmHg 86%
    03:00 +1°C° 0 mm 4 mps 747 mmHg 88%
    04:00 +1°C° 0 mm 4 mps 747 mmHg 90%
    05:00 +2°C° 0 mm 3 mps 747 mmHg 92%
    06:00 +1°C° 0.4 mm 4 mps 747 mmHg 93%
    07:00 +1°C° 0.4 mm 4 mps 747 mmHg 93%
    08:00 +1°C° 0.4 mm 4 mps 747 mmHg 94%
    09:00 +3°C° 0.3 mm 4 mps 746 mmHg 92%
    10:00 +3°C° 0.3 mm 4 mps 746 mmHg 90%
    11:00 +2°C° 0.3 mm 5 mps 746 mmHg 89%
    12:00 +3°C° 0.1 mm 5 mps 746 mmHg 88%
    13:00 +3°C° 0.1 mm 5 mps 746 mmHg 87%
    14:00 +3°C° 0.1 mm 5 mps 746 mmHg 86%
    15:00 +3°C° 0.1 mm 5 mps 746 mmHg 88%
    16:00 +4°C° 0.1 mm 4 mps 746 mmHg 90%
    17:00 +4°C° 0.1 mm 4 mps 746 mmHg 92%
    18:00 +4°C° 0.1 mm 4 mps 746 mmHg 93%
    19:00 +4°C° 0.1 mm 4 mps 747 mmHg 93%
    20:00 +4°C° 0.1 mm 4 mps 747 mmHg 94%
    21:00 +4°C° 0.2 mm 4 mps 747 mmHg 94%
    22:00 +3°C° 0.2 mm 3 mps 748 mmHg 94%
    23:00 +3°C° 0.2 mm 3 mps 748 mmHg 95%

    22 February, Friday

    Time Temperature Precipitation Wind Pressure Humidity
    00:00 +1°C° 0.3 mm 4 mps 749 mmHg 91%
    01:00 0°C° 0.3 mm 4 mps 749 mmHg 87%
    02:00 -1°C° 0.3 mm 5 mps 750 mmHg 84%
    03:00 -2°C° 0 mm 5 mps 751 mmHg 81%
    04:00 -4°C° 0 mm 5 mps 752 mmHg 78%
    05:00 -4°C° 0 mm 5 mps 752 mmHg 75%
    06:00 -5°C° 0 mm 5 mps 754 mmHg 73%
    07:00 -5°C° 0 mm 5 mps 755 mmHg 70%
    08:00 -5°C° 0 mm 5 mps 756 mmHg 67%
    09:00 -5°C° 0 mm 5 mps 757 mmHg 63%
    10:00 -5°C° 0 mm 5 mps 758 mmHg 59%
    11:00 -4°C° 0 mm 5 mps 759 mmHg 55%
    12:00 -3°C° 0 mm 4 mps 760 mmHg 51%
    13:00 -2°C° 0 mm 4 mps 761 mmHg 47%
    14:00 -2°C° 0 mm 4 mps 761 mmHg 43%
    15:00 -1°C° 0 mm 3 mps 762 mmHg 44%
    16:00 -1°C° 0 mm 3 mps 762 mmHg 44%
    17:00 -1°C° 0 mm 2 mps 763 mmHg 45%
    18:00 -2°C° 0 mm 2 mps 763 mmHg 48%
    19:00 0°C° 0 mm 1 mps 764 mmHg 51%
    20:00 -1°C° 0 mm 1 mps 764 mmHg 54%
    21:00 -1°C° 0 mm 1 mps 764 mmHg 53%
    22:00 -2°C° 0 mm 0 mps 765 mmHg 53%
    23:00 -2°C° 0 mm 0 mps 765 mmHg 53%

    23 February, Saturday

    Time Temperature Precipitation Wind Pressure Humidity
    00:00 -1°C° 0 mm 1 mps 765 mmHg 52%
    01:00 -1°C° 0 mm 1 mps 764 mmHg 51%
    02:00 -3°C° 0 mm 2 mps 764 mmHg 51%
    03:00 -4°C° 0 mm 3 mps 764 mmHg 49%
    04:00 -4°C° 0 mm 3 mps 763 mmHg 47%
    05:00 -3°C° 0 mm 4 mps 763 mmHg 45%
    06:00 -3°C° 0 mm 4 mps 763 mmHg 45%
    07:00 -3°C° 0 mm 4 mps 762 mmHg 44%
    08:00 -3°C° 0 mm 4 mps 761 mmHg 44%
    09:00 -2°C° 0 mm 5 mps 761 mmHg 45%
    10:00 -2°C° 0 mm 5 mps 760 mmHg 46%
    11:00 -1°C° 0 mm 5 mps 760 mmHg 47%
    12:00 -1°C° 0 mm 5 mps 759 mmHg 53%
    13:00 -2°C° 0 mm 6 mps 758 mmHg 59%
    14:00 -2°C° 0 mm 6 mps 757 mmHg 65%
    15:00 -1°C° 0 mm 5 mps 756 mmHg 70%
    16:00 0°C° 0 mm 5 mps 756 mmHg 76%
    17:00 0°C° 0 mm 5 mps 755 mmHg 82%
    18:00 +1°C° 0 mm 5 mps 755 mmHg 86%
    19:00 +1°C° 0 mm 5 mps 755 mmHg 90%
    20:00 +1°C° 0 mm 5 mps 755 mmHg 95%
    21:00 +1°C° 0 mm 4 mps 755 mmHg 95%
    22:00 +1°C° 0 mm 4 mps 755 mmHg 95%
    23:00 +1°C° 0 mm 3 mps 755 mmHg 96%
    Show more